Weather in San Fernando del Valle de Catamarca

Argentina     28°28′32″S   65°46′37″W
temp.,
°C
wind,
m/s
gust,
m/s
humid.,
%
clouds,
%
prec.,
mm/h
press.,
hPa
HPBL,
m
8 march, mon
mon800:00+23ne610570 0.0 1010166
03:00+23ne44550 0.0 101065
06:00+20ne11650 0.0 101223
09:00+25ne12510 0.0 1015168
12:00+29sw32420 0.1 1015930
15:00+32nw44323 0.3 10132322
18:00+30ne463795 0.0 10121403
21:00+24nne454548 0.0 101373
9 march, tue
tue900:00+23nne56420 0.0 1014111
03:00+22ne58400 0.0 1013149
06:00+22ne69370 0.0 1013168
09:00+24nne813390 0.0 1015641
12:00+30ne1012270 0.0 10141283
15:00+31ne1012280 0.0 10101308
18:00+31nne1012310 0.0 10071575
21:00+24nne613430 0.0 1008323
10 march, wed
wed1000:00+24nne814420 0.0 1010336
03:00+25nne814380 0.0 1009306
06:00+22nne711430 0.0 1008205
09:00+24nne914450 0.0 1009526
12:00+30ne1113350 0.0 1008804
15:00+31ne1113330 0.0 1005927
18:00+31nne1214330 0.1 10021186
21:00+26nne915390 0.1 1003407
11 march, thu
thu1100:00+25nne814400 0.0 1005303
03:00+24nne6104340 0.0 1006187
06:00+21nne2253100 0.0 100732
09:00+24nne334964 0.0 1010205
12:00+30ssw12365 0.0 10101260
15:00+32ne123149 0.2 10082095
18:00+32nne673243 0.1 10051835
21:00+25nne454570 0.1 100794
12 march, fri
fri1200:00+26nne4541100 0.0 100986
03:00+25e124387 0.0 100939
06:00+21ne3343100 0.0 100948
09:00+24ne1245100 0.2 1011198
12:00+29sw223434 0.0 10111242
15:00+32w152818 0.0 10092042
18:00+32ne782923 0.0 10072111
21:00+26n223940 0.0 100943